Preview of NWS' New Version of Forecast
This preview is not operational and should not be used for support decisions.

Regional Weather Roundup (RWR)

Issued by National Weather Service (NWS)

                            
000
ASUS43 KMKX 231400
RWRWI 

WISCONSIN REGIONAL WEATHER ROUNDUP
NATIONAL WEATHER SERVICE MILWAUKEE/SULLIVAN WI
900 AM CDT TUE JUL 23 2019

NOTE: "FAIR" INDICATES FEW OR NO CLOUDS BELOW 12,000 FEET WITH NO
SIGNIFICANT WEATHER AND/OR OBSTRUCTIONS TO VISIBILITY.

WIZ001-002-006>008-014>016-023>028-231500-
NORTHWEST WISCONSIN
  
CITY           SKY/WX    TMP DP  RH WIND       PRES   REMARKS
SUPERIOR ARPT  FAIR      70  57  62 CALM      30.19R                  
ASHLAND        FAIR      68  58  70 SW5       30.18S                  
HAYWARD        FAIR      65  58  78 VRB3      30.21S                  
SIREN          CLOUDY    65  56  75 W5        30.23S                  
CUMBERLAND     NOT AVBL                                               
RICE LAKE      FAIR      67  55  65 W6        30.23S                  
CHETEK         FAIR      67  59  77 NW5       30.22S                  
LADYSMITH      FAIR      65  58  77 NW9       30.22R                  
EAU CLAIRE     NOT AVBL                                               
MENOMONIE      FAIR      65  55  69 W9        30.22S                  
NEW RICHMOND   FAIR      64  57  78 CALM      30.24S                  
OSCEOLA        FAIR      63  61  93 CALM      30.26S                  
$$
 
WIZ003>005-009-010-017-018-231500-
NORTH CENTRAL WISCONSIN
  
CITY           SKY/WX    TMP DP  RH WIND       PRES   REMARKS
MANITOWISH WTR FAIR      65  57  77 NW3       30.18S                  
ARBOR VITAE    FAIR      64  58  80 N5        30.19S                  
WOODRUFF       FAIR      64  58  80 N5        30.19S                  
RHINELANDER    FAIR      66  56  70 N6        30.18S                  
EAGLE RIVER    FAIR      64  54  69 NW6       30.18S                  
LAND O LAKES   FAIR      64  56  74 NW7       30.19S                  
PHILLIPS       FAIR      64  58  80 NW3       30.19S                  
TOMAHAWK       FAIR      62  55  76 NW5       30.19S                  
MEDFORD        FAIR      64  56  76 N7        30.19S                  
MERRILL        FAIR      65  57  74 N6        30.19R                  
$$
 
WIZ029-030-035-036-043>047-231500-
CENTRAL WISCONSIN
  
CITY           SKY/WX    TMP DP  RH WIND       PRES   REMARKS
WAUSAU         FAIR      67  55  65 NW8       30.16S                  
MOSINEE        MOSUNNY   64  55  72 N7        30.19R                  
MARSHFIELD     FAIR      68  58  70 N8        30.18S                  
STEVENS POINT  FAIR      65  54  67 N10       30.18R                  
WAUPACA        FAIR      70  57  63 N9G16     30.16                   
WAUTOMA        FAIR      69  57  65 N12       30.16S                  
WISC RAPIDS    FAIR      70  57  63 N9        30.18S                  
CAMP DOUGLAS   NOT AVBL                                               
$$
 
WIZ011>013-019>022-031-037>040-048>050-231500-
NORTHEAST WISCONSIN
  
CITY           SKY/WX    TMP DP  RH WIND       PRES   REMARKS
ANTIGO         FAIR      64  57  78 NW8       30.18R                  
SHAWANO        FAIR      69  57  66 NW6       30.14S                  
OCONTO         FAIR      67  57  69 NW6       30.11S                  
STURGEON BAY   FAIR      66  58  75 NW13      30.11R                  
GREEN BAY      FAIR      68  58  70 NW10      30.13R                  
MANITOWOC      FAIR      68  58  70 NW12      30.11S                  
APPLETON       MOSUNNY   66  52  59 N10       30.13R                  
CLINTONVILLE   FAIR      68  56  64 N6        30.14S                  
OSHKOSH        FAIR      68  56  65 N9G17     30.13S                  
$$
 
WIZ032>034-041-042-053>061-231500-
SOUTHWEST WISCONSIN
  
CITY           SKY/WX    TMP DP  RH WIND       PRES   REMARKS
LA CROSSE      FAIR      71  57  61 NW10      30.20S                  
SPARTA         FAIR      64  57  79 CALM      30.20S                  
VIROQUA        FAIR      66  62  86 NW6       30.22S                  
BOSCOBEL       FAIR      70  59  68 VRB3      30.20S                  
PRAIRIE DU CHI FAIR      69  55  62 NW12G17   30.21R                  
PLATTEVILLE    FAIR      68  63  84 N7        30.20S                  
$$

WIZ056-057-062-063-064-067-068-231500-
SOUTH CENTRAL WISCONSIN
  
CITY           SKY/WX    TMP DP  RH WIND       PRES   REMARKS
REEDSBURG      FAIR      68  59  72 NW5       30.18S                  
BARABOO/DELLS  FAIR      68  56  65 NW8       30.18R                  
LONE ROCK      NOT AVBL                                               
MINERAL POINT  FAIR      68  63  83 N8        30.20R                  
MADISON        FAIR      69  56  62 N9        30.16R                  
MIDDLETON      FAIR      68  59  71 NW10      30.18R                  
WATERTOWN      NOT AVBL                                               
MONROE         FAIR      68  56  65 N12       30.17S                  
JANESVILLE     SUNNY     68  61  77 NW8       30.15S                  
$$
 
WIZ051-052-058>065-066-070>072-231500-
SOUTHEAST WISCONSIN
  
CITY           SKY/WX    TMP DP  RH WIND       PRES   REMARKS
MILWAUKEE      FAIR      71  57  61 W12       30.10S                  
WAUKESHA       SUNNY     63  55  77 NW10      30.14R                  
MILWAUKEE/TIMM PTSUNNY   70  55  60 NW6       30.12S                  
RACINE         FAIR      68  58  70 W9        30.12S                  
KENOSHA        FAIR      70  62  76 NW9       30.12S                  
FOND DU LAC    FAIR      71  58  63 N9        30.14S                  
SHEBOYGAN      FAIR      69  57  65 N9        30.11S                  
WEST BEND      CLOUDY    64  59  82 NW12      30.12S                  
JUNEAU         FAIR      66  59  78 NW7       30.15S                  
$$

LSZ147-162-231500-
LAKE SUPERIOR
  
STATION/POSITION TIME  TEMP    WIND        PRES    WAVE
                       AIR SEA DIR/SP/G            HT/PER
                 (UTC) (F)     (DEG/KT/KT) (MB)    (FT/S)
W MID LAKE BUOY  1250   56 47  260/  6/  8 1020.6R   1/ 3
$$
 
LMZ867-665-643>646-231500-
LAKE MICHIGAN
  
STATION/POSITION TIME  TEMP    WIND        PRES    WAVE
                       AIR SEA DIR/SP/G            HT/PER
                 (UTC) (F)     (DEG/KT/KT) (MB)    (FT/S)
CHAMBERS ISLAND  1340   67     310/  9/ 12 1018.6S
S GREEN BAY BUOY 1330   70 72  340/ 12/ 14 1019.8R
N MID LAKE BUOY  1340   63 65  330/ 16/ 19 1018.5R
NORTHPORT PIER   1340   66     310/  8/ 10 1018.6R
KEWAUNEE LAKESHO 1324   67     330/  6/ 10 1018.6
SHEBOYGAN LAKESH 1300   65     320/ 11/ 13 1019.1R
ATWATER BUOY     1330   66 64  290/  8/ 10 1019.5R   1/ 5
MILWAUKEE LAKESH 1330   67     290/  8/ 11   N/A
S MID LAKE BUOY  1340   67 68  320/  8/  8 1019.6S
KENOSHA   LAKESH 1300   66     260/  8/ 11 1019.3
$$

TC  - TEMPERATURE IN CELSIUS
VSB - VISIBILITY IN STATUTE MILES
WCI - WIND CHILL INDEX
HX  - HEAT INDEX